Location: Ernstfeld
(49.7958°N, 11.7398°E)
Time: 18:18:05
(UTC+00:00)

Daily predictions for brighter satellites

Satellite Brightness Start Highest point End
(mag) Time Altitude Azimuth Time Altitude Azimuth Time Altitude Azimuth
Cosmos 2297 Rocket 3.0 15:57:34 10° NNW 16:02:29 29° NE 16:07:23 10° ESE
Cosmos 540 Rocket 4.2 15:59:35 10° SW 16:04:40 56° WNW 16:09:47 10° NNE
TELKOM 3 2.6 16:05:53 10° W 16:08:09 89° N 16:10:16 10° E
PSLV R/B 4.1 16:05:20 10° NNE 16:09:32 57° ESE 16:13:41 10° S
Cosmos 1455 2.1 16:06:14 10° S 16:09:59 72° E 16:13:45 10° NNE
Cosmos 1818 4.2 16:06:15 10° NW 16:11:40 64° SW 16:17:01 10° SSE
Cosmos 2233 Rocket 4.2 16:05:35 10° N 16:11:45 50° ENE 16:17:50 10° SSE
Cosmos 1842 Rocket 4.0 16:08:47 10° SSE 16:13:00 43° E 16:17:15 10° NNE
Cosmos 2221 3.3 16:09:54 10° SSE 16:13:42 31° E 16:17:33 10° NNE
CORIOLIS 4.3 16:10:08 10° SE 16:15:24 57° ENE 16:20:44 10° N
AQUARIUS 4.2 16:12:44 10° SSE 16:17:09 58° ENE 16:21:35 10° N
ALOS 3.8 16:16:09 10° SSW 16:20:34 41° W 16:25:01 10° NNW
H-2A R/B 2.8 16:18:53 10° SSE 16:22:41 57° ENE 16:26:28 10° N
Feng Yun 1-1 Rocket 4.2 16:17:21 10° SSE 16:22:59 81° ENE 16:28:31 10° NNW
Cosmos-2242 4.1 16:21:12 10° SSW 16:25:18 46° WNW 16:29:26 10° N
Meteor 2-3 Rocket 3.8 16:21:38 10° N 16:27:28 69° ENE 16:33:14 10° SSE
Cosmos 1238 Rocket 3.2 16:23:22 10° N 16:28:15 52° ENE 16:32:13 10° SSE
Cosmos 2263 Rocket 4.1 16:27:30 10° N 16:29:19 11° NNE 16:31:10 10° NE
Cosmos 1943 Rocket 3.7 16:24:35 10° WSW 16:29:39 33° NW 16:34:46 10° NNE
SMAP 3.0 16:25:26 10° SSE 16:30:05 84° ENE 16:34:47 10° NNW
YAOGAN 6 3.7 16:27:43 10° ESE 16:30:31 23° ENE 16:33:19 10° NNE
Cosmos 1743 Rocket 3.5 16:27:01 10° N 16:31:22 73° E 16:35:43 10° SSE
Cosmos 1805 Rocket 4.2 16:28:04 10° N 16:32:00 32° ENE 16:35:56 10° SE
TSX-5 4.2 16:29:57 10° S 16:33:43 52° ESE 16:38:32 10° NE
IRS-1C Rocket 4.3 16:28:58 10° S 16:34:15 77° WSW 16:39:35 10° NNW
Okean O Rocket 3.7 16:30:34 10° SSW 16:34:30 32° W 16:38:28 10° NNW
Cosmos 2123 Rocket 4.0 16:29:09 10° S 16:35:23 87° E 16:41:36 10° N
COBE Rocket 4.2 16:31:19 10° NNE 16:35:59 44° E 16:40:31 10° S
Meteor 2-10 Rocket 3.4 16:31:49 10° S 16:36:49 87° E 16:41:54 10° NNE
Genesis I 4.4 16:33:38 10° S 16:37:00 26° ESE 16:39:24 15° ENE
USA 215 3.4 16:34:17 10° E 16:40:41 58° NNE 16:47:06 10° WNW
Cosmos 1725 Rocket 4.3 16:34:44 10° NNW 16:41:04 74° W 16:47:21 10° S
CZ-4B R/B 4.3 16:41:35 10° NNW 16:43:29 15° WNW 16:45:24 10° W
Envisat 3.0 16:38:57 10° SSE 16:43:54 57° ENE 16:48:54 10° N
Cosmos 1697 Rocket 4.3 16:42:41 10° ESE 16:45:07 13° E 16:45:07 13° E
USA 229 DEB 4.4 16:39:42 10° S 16:45:19 31° ESE 16:49:59 15° ENE
USA 229 4.4 16:39:52 10° S 16:45:26 31° ESE 16:50:02 15° ENE
Aureole 2 Rocket 4.2 16:47:49 10° WSW 16:50:51 30° WNW 16:54:00 10° N
NOSS 3-1 (C) 4.2 16:48:03 10° S 16:52:41 28° ESE 16:55:55 18° ENE
ATLAS 5 CENTAUR R/B 2.3 16:47:21 10° NW 16:52:53 63° NE 16:59:17 10° SE
Cosmos 1500 Rocket 3.9 16:52:44 10° NNW 16:57:08 70° W 17:01:27 10° S
CZ-4 R/B 1.6 16:55:49 10° SE 16:59:50 48° ENE 17:03:49 10° N
Meteor 2-20 4.5 16:54:06 10° S 17:00:03 57° E 17:06:04 10° NNE
Cosmos 1340 Rocket 4.3 16:57:51 10° SW 17:01:38 38° WNW 17:05:27 10° N
Cosmos 1633 Rocket 3.8 16:59:48 10° N 17:03:44 31° ENE 17:07:40 10° SE
COSMO-SKYMED 1 2.8 17:03:02 10° NNE 17:07:15 47° E 17:11:26 10° S
Geosat 4.0 17:05:42 10° NNE 17:10:46 87° WNW 17:15:48 10° SSW
SeaSat 1 3.3 17:06:03 10° SSE 17:10:52 53° WSW 17:15:43 10° NW
Cosmos 1869 3.3 17:07:43 10° S 17:11:36 57° E 17:15:29 10° NNE
Cosmos 1666 Rocket 3.8 17:08:17 10° N 17:12:32 44° ENE 17:16:42 10° SSE
Cosmos 1607 3.9 17:06:31 10° NW 17:12:45 85° NE 17:19:02 10° SE
NOAA 11 4.5 17:10:10 10° SE 17:15:14 43° ENE 17:20:21 10° N
Cosmos 1867 3.5 17:13:16 10° SW 17:18:45 88° SE 17:22:42 20° NE
CZ-2D R/B 3.8 17:19:33 36° ENE 17:19:33 36° ENE 17:23:08 10° N
Cosmos 1939 Rocket 3.5 17:19:06 34° E 17:19:35 35° ENE 17:23:23 10° N
H-2A R/B 3.8 17:21:43 16° NE 17:21:43 16° NE 17:23:44 10° NNE
Sich 1 2.9 17:17:16 10° N 17:21:36 71° ENE 17:25:57 10° SSE
GEOS 3 Rocket 4.0 17:17:33 15° NE 17:21:51 63° NW 17:27:02 10° WSW
Cosmos 2219 3.6 17:16:48 10° NNW 17:22:23 66° WSW 17:27:55 10° SSE
CSL-04 Debris 4.1 17:17:10 10° SSE 17:22:38 70° ENE 17:28:07 10° NNW
Cosmos 2034 Rocket 4.1 17:18:59 10° N 17:25:10 52° ENE 17:31:21 10° SSE
Cosmos 1513 Rocket 4.5 17:19:17 10° N 17:25:43 69° ENE 17:32:05 10° SSE
Ariane Rocket 3.4 17:25:09 29° ESE 17:26:53 39° ENE 17:31:35 10° N
Cosmos 1656 3.9 17:22:56 10° S 17:28:13 45° ESE 17:30:21 31° ENE
SKYMED 3 4.4 17:27:01 10° NNE 17:31:23 81° ESE 17:35:44 10° SSW
Cosmos 2084 4.3 17:27:32 10° NW 17:31:43 49° SW 17:35:47 10° SSE
Cosmos 2369 Rocket 4.4 17:28:02 10° WNW 17:31:49 18° NW 17:35:36 10° N
CZ-3B R/B 3.4 17:31:56 10° W 17:34:26 44° N 17:34:42 43° N
FengYun 1-2 T 4.4 17:30:35 10° S 17:36:06 72° WSW 17:41:38 10° NNW
Okean-O 4.3 17:33:06 10° SSW 17:37:11 36° W 17:41:19 10° NNW
CENTAUR R/B 4.1 17:32:37 10° WNW 17:38:37 29° N 17:42:28 20° NE
Cosmos 923 Rocket 4.4 17:34:29 10° S 17:39:04 39° ESE 17:39:04 39° ESE
YAOGAN 1 2.5 17:35:09 10° SSE 17:39:29 87° WSW 17:43:51 10° NNW
Cosmos 2344 4.0 17:33:17 10° WSW 17:40:43 62° NW 17:47:45 16° NE
Cosmos 773 Rocket 4.0 17:35:43 10° SSW 17:40:52 78° WNW 17:45:15 15° NNE
Cosmos 2056 Rocket 4.2 17:38:34 10° N 17:42:39 34° NE 17:42:39 34° NE
CSL-04 Rocket 3.7 17:39:04 10° SSE 17:44:28 82° WSW 17:49:49 10° NNW
Cosmos 2227 Rocket 2.5 17:40:41 10° NNW 17:46:20 69° WSW 17:51:56 10° SSE
Tsikada Rocket 4.3 17:40:34 10° SSE 17:46:29 43° E 17:52:28 10° NNE
Cosmos 2297 Rocket 2.6 17:41:22 10° NW 17:46:59 64° WSW 17:52:33 10° SSE
Cosmos 1633 2.7 17:46:33 10° NNW 17:50:12 71° W 17:52:45 18° S
Cosmos 2221 4.5 17:47:29 10° SW 17:51:16 29° WNW 17:55:06 10° N
Cosmos 1538 Rocket 4.0 17:46:02 10° SSW 17:51:18 83° WNW 17:54:53 21° NNE
Meteor 2-11 Rocket 4.3 17:45:42 10° N 17:51:50 75° E 17:57:57 10° SSE
ATLAS 3B R/B 4.1 17:48:04 10° NW 17:53:22 24° N 17:55:52 20° NNE
SKYMED 2 4.1 17:51:07 10° N 17:55:25 60° WNW 17:59:42 10° SSW
Cosmos 1862 3.3 17:52:20 10° NNW 17:56:19 77° W 17:57:45 38° S
IRS-1A Rocket 4.2 17:54:55 41° SE 17:56:46 62° ENE 18:02:25 10° N
USA 116 4.0 17:56:23 29° N 17:58:38 84° WNW 18:03:27 10° SSW
Cosmos 2369 3.8 17:55:24 10° S 18:00:29 51° SE 18:00:29 51° SE
DMSP B5D1-3 4.4 18:05:47 52° NNE 18:07:02 76° ESE 18:12:12 10° S
Cosmos 1356 Rocket 4.4 18:06:02 10° SSW 18:10:02 47° WNW 18:12:40 20° N
Cosmos 2082 3.9 18:06:15 10° NNW 18:11:52 69° WSW 18:14:50 28° S
Lacrosse 4 Rocket 3.6 18:09:10 10° SSW 18:10:04 16° S 18:10:04 16° S
Genesis I 4.2 18:10:34 10° WSW 18:14:20 45° NW 18:14:20 45° NW
Cosmos 2263 Rocket 3.3 18:10:01 10° NNW 18:13:30 29° NNE 18:13:30 29° NNE
Gblst 52 Del rocket 4.3 18:10:00 10° W 18:16:49 80° N 18:17:47 65° ENE
BREEZE-M DEB (TANK) 4.3 18:15:26 10° SW 18:17:34 21° SSW 18:17:34 21° SSW
USA 215 3.3 18:21:35 46° SSE 18:23:39 72° SW 18:30:13 10° WNW
Cosmos 1697 Rocket 3.0 18:22:33 10° SSW 18:26:56 54° S 18:26:56 54° S
BREEZE-M DEB (TANK) 3.5 18:24:13 10° W 18:28:16 41° W 18:28:16 41° W
Cosmos 1371 Rocket 4.4 18:28:00 10° NNW 18:32:10 57° NNW 18:32:10 57° NNW
CZ-4 R/B 4.1 18:32:03 10° SW 18:35:06 19° W 18:38:08 10° NW
USA 229 DEB 3.8 18:29:08 10° SW 18:35:44 72° NW 18:37:27 52° NNE
USA 229 3.7 18:29:15 10° SW 18:35:50 72° NW 18:37:30 53° NNE
Cosmos 724 4.2 18:30:22 10° NW 18:36:09 80° WSW 18:36:09 80° WSW
ATLAS 5 CENTAUR R/B 3.8 18:32:14 10° WNW 18:37:29 35° WSW 18:42:11 15° S
NOSS 3-1 (A) 3.4 18:35:06 10° SW 18:39:52 67° SSW 18:39:52 67° SSW
NOSS 3-1 (C) 3.5 18:37:13 10° SW 18:42:53 69° NW 18:43:21 66° NNW
MOS 1 4.4 18:44:55 68° NW 18:44:55 68° NW 18:49:57 10° NNW
H-2A R/B 3.9 19:02:21 24° NNW 19:02:21 24° NNW 19:04:23 10° NNW
Ariane Rocket 4.4 19:05:22 33° WSW 19:05:53 34° W 19:10:32 10° NNW
CENTAUR R/B 4.0 19:24:19 10° NW 19:29:37 37° N 19:29:37 37° N
ATLAS 3B R/B 4.3 19:39:56 10° NW 19:43:07 25° NNW 19:43:07 25° NNW
